Regional Weather Roundup
Issued by NWS

Home | Current Version | Previous Version | Text Only | Print | Product List | Glossary Off
Versions: 1 2 3 4 5 6 7 8 9 10 11 12 13 14 15 16 17 18 19 20 21 22 23 24 25 26 27 28 29 30 31 32 33 34 35 36 37 38 39 40 41 42 43 44 45 46 47 48 49 50

830
ASUS43 KFSD 281902
RWRSD

WEATHER ROUNDUP FOR SOUTH DAKOTA
NATIONAL WEATHER SERVICE SIOUX FALLS SD
200 PM CDT TUE MAR 28 2017

NOTE: "FAIR" INDICATES FEW OR NO CLOUDS BELOW 12,000 FEET WITH NO
SIGNIFICANT WEATHER AND/OR OBSTRUCTIONS TO VISIBILITY.


SDZ001>005-009-010-012>017-282000-
NORTHWEST AND NORTH CENTRAL SOUTH DAKOTA

CITY           SKY/WX    TMP DP  RH WIND       PRES   REMARKS
BUFFALO          N/A     58  40  51 E8        29.97F
FAITH            N/A     50  44  80 MISG      30.06F
MOBRIDGE       CLOUDY    58  37  45 SE12      30.08F
$$

SDZ012>016-024>037-041>051-057-063-072>074-282000-
SOUTHWEST AND SOUTH CENTRAL SOUTH DAKOTA

CITY           SKY/WX    TMP DP  RH WIND       PRES   REMARKS
RAPID CTY ARPT LGT RAIN  42  40  92 N5        30.04S
PIERRE         CLOUDY    53  43  68 S13       30.09S
CUSTER         LGT RAIN  37  34  89 NE9       30.02R
ELLSWORTH AFB  LGT RAIN  42  42 100 CALM      30.04
PHILIP         LGT RAIN  48  45  89 E14       30.06F
PINE RIDGE     RAIN      46  45  96 NE7       30.02S FOG
SPEARFISH      FAIR      46  39  76 NE8       30.04S
WINNER         LGT RAIN  51  46  83 E8        30.07F
$$

SDZ004>011-016>023-039-040-282000-
NORTHEAST SOUTH DAKOTA

CITY           SKY/WX    TMP DP  RH WIND       PRES   REMARKS
ABERDEEN       MOSUNNY   56  36  47 SE7       30.15F
WATERTOWN      MOSUNNY   55  35  47 NE6       30.14F
BROOKINGS      CLOUDY    55  38  52 S7        30.13
SISSETON         N/A     57  42  57 SE7       30.15F
$$

SDZ017-020-022-023-036>040-048>070-282000-
SOUTHEAST SOUTH DAKOTA

CITY           SKY/WX    TMP DP  RH WIND       PRES   REMARKS
SIOUX FALLS    CLOUDY    60  38  43 NE9       30.12F
HURON          CLOUDY    56  39  53 VRB5      30.13F
CHAMBERLAIN    CLOUDY    60  40  46 CALM      30.09F
MITCHELL       SUNNY     58  37  45 MISG      30.12F
YANKTON        MOSUNNY   55  39  54 E9        30.09F
$$

ABBREVIATIONS USED IN REMARKS
   TC - TEMPERATURE IN CELSIUS
  WCI - WIND CHILL INDEX
   HX - HEAT INDEX
  VSB - VISIBILITY





USA.gov is the U.S. government's official web portal to all federal, state and local government web resources and services.